This is the latest recevied weather packets stored in our database for station/object K2BIG. If no packets are shown the sender has not sent any weather packets the latest 10 day(s).
| Time | Temp. | Humidity | Pressure | Rain* | Wind** | Luminosity | Snow |
|---|---|---|---|---|---|---|---|
| 1777840515 | 16.67° C | 32% | 1009.6 hPa | 0 mm | - | - | - |
| 1777840215 | 16.67° C | 30% | 1009.6 hPa | 0 mm | - | - | - |
| 1777839915 | 16.11° C | 35% | 1009.5 hPa | 0 mm | - | - | - |
| 1777839615 | 16.11° C | 31% | 1009.7 hPa | 0 mm | - | - | - |
| 1777839315 | 15.56° C | 31% | 1009.6 hPa | 0 mm | - | - | - |
| 1777839015 | 15.56° C | 32% | 1009.7 hPa | 0 mm | - | - | - |
| 1777838715 | 16.11° C | 34% | 1009.8 hPa | 0 mm | - | - | - |
| 1777838415 | 16.67° C | 34% | 1009.7 hPa | 0 mm | - | - | - |
| 1777838115 | 16.67° C | 33% | 1009.7 hPa | 0 mm | - | - | - |
| 1777837815 | 16.11° C | 35% | 1009.8 hPa | 0 mm | - | - | - |
| 1777837515 | 16.11° C | 36% | 1009.8 hPa | 0 mm | - | - | - |
| 1777837215 | 16.11° C | 33% | 1009.9 hPa | 0 mm | - | - | - |
| 1777836915 | 16.11° C | 34% | 1009.9 hPa | 0 mm | - | - | - |
| 1777836615 | 16.11° C | 39% | 1010.1 hPa | 0 mm | - | - | - |
| 1777836315 | 16.11° C | 34% | 1010.2 hPa | 0 mm | - | - | - |
| 1777836015 | 16.11° C | 36% | 1010.3 hPa | 0 mm | - | - | - |
| 1777835715 | 16.11° C | 39% | 1010.3 hPa | 0 mm | - | - | - |
| 1777835415 | 16.11° C | 39% | 1010.4 hPa | 0 mm | - | - | - |
| 1777835115 | 15.56° C | 36% | 1010.4 hPa | 0 mm | - | - | - |
| 1777834815 | 15° C | 38% | 1010.3 hPa | 0 mm | - | - | - |
| 1777834517 | 15.56° C | 35% | 1010.5 hPa | 0 mm | - | - | - |
| 1777834217 | 15.56° C | 37% | 1010.5 hPa | 0 mm | - | - | - |
| 1777833917 | 16.11° C | 36% | 1010.5 hPa | 0 mm | - | - | - |
| 1777833617 | 15.56° C | 40% | 1010.4 hPa | 0 mm | - | - | - |
| 1777833317 | 15.56° C | 39% | 1010.6 hPa | 0 mm | - | - | - |
* Rain latest hour (hover to see other rain measurements)
** Current wind speed in m/s (hover to see current wind gust speed)